| time (UTC) | temp F | wind direction | speed MPH | gust MPH | rain 1hr in | rain 24hr in | rain mn in | humidity % | barometer mb |
| 20260902231518 | 73 | 242 | 5.0 | 9.0 | 0.00 | 0.00 | 0.00 | 20 | 1012.7 |
| 20260902230013 | 73 | 223 | 3.0 | 7.0 | 0.00 | 0.00 | 0.00 | 23 | 1012.7 |
| 20260902224513 | 73 | 148 | 4.0 | 8.0 | 0.00 | 0.00 | 0.00 | 21 | 1012.8 |
| 20260902223020 | 74 | 233 | 3.0 | 8.0 | 0.00 | 0.00 | 0.00 | 23 | 1013.1 |
| 20260902221516 | 74 | 148 | 4.0 | 9.0 | 0.00 | 0.00 | 0.00 | 22 | 1013.3 |
| 20260902220022 | 74 | 182 | 4.0 | 6.0 | 0.00 | 0.00 | 0.00 | 21 | 1013.5 |
| 20260902214530 | 74 | 247 | 4.0 | 8.0 | 0.00 | 0.00 | 0.00 | 20 | 1013.4 |
| 20260902213007 | 74 | 177 | 4.0 | 11.0 | 0.00 | 0.00 | 0.00 | 19 | 1013.6 |
| 20260902211506 | 74 | 212 | 4.0 | 10.0 | 0.00 | 0.00 | 0.00 | 20 | 1013.6 |
| 20260902210011 | 74 | 232 | 4.0 | 10.0 | 0.00 | 0.00 | 0.00 | 21 | 1013.5 |
| 20260902204505 | 74 | 244 | 4.0 | 9.0 | 0.00 | 0.00 | 0.00 | 18 | 1013.7 |
| 20260902203003 | 74 | 235 | 4.0 | 15.0 | 0.00 | 0.00 | 0.00 | 19 | 1013.6 |
| 20260902201507 | 74 | 271 | 3.0 | 7.0 | 0.00 | 0.00 | 0.00 | 20 | 1013.9 |
| 20260902200004 | 74 | 139 | 3.0 | 10.0 | 0.00 | 0.00 | 0.00 | 19 | 1014.1 |
| 20260902194501 | 74 | 217 | 4.0 | 12.0 | 0.00 | 0.00 | 0.00 | 16 | 1014.2 |
| 20260902193103 | 73 | 172 | 3.0 | 7.0 | 0.00 | 0.00 | 0.00 | 15 | 1014.3 |
| 20260902191559 | 73 | 190 | 4.0 | 10.0 | 0.00 | 0.00 | 0.00 | 15 | 1014.4 |
| 20260902190056 | 73 | 285 | 3.0 | 9.0 | 0.00 | 0.00 | 0.00 | 15 | 1014.5 |
| 20260902184601 | 72 | 234 | 4.0 | 8.0 | 0.00 | 0.00 | 0.00 | 14 | 1014.6 |
| 20260902183102 | 72 | 177 | 3.0 | 8.0 | 0.00 | 0.00 | 0.00 | 15 | 1014.5 |
| 20260902181554 | 71 | 190 | 3.0 | 10.0 | 0.00 | 0.00 | 0.00 | 15 | 1014.6 |
| 20260902180048 | 69 | 220 | 4.0 | 11.0 | 0.00 | 0.00 | 0.00 | 14 | 1014.6 |
| 20260902174552 | 70 | 246 | 4.0 | 7.0 | 0.00 | 0.00 | 0.00 | 16 | 1014.6 |
| 20260902173107 | 69 | 169 | 3.0 | 10.0 | 0.00 | 0.00 | 0.00 | 16 | 1014.5 |
| 20260902171545 | 69 | 215 | 3.0 | 8.0 | 0.00 | 0.00 | 0.00 | 16 | 1014.3 |
| 20260902170039 | 67 | 186 | 4.0 | 8.0 | 0.00 | 0.00 | 0.00 | 17 | 1014.1 |
| 20260902164537 | 66 | 163 | 3.0 | 8.0 | 0.00 | 0.00 | 0.00 | 18 | 1014.1 |
| 20260902163033 | 66 | 245 | 3.0 | 8.0 | 0.00 | 0.00 | 0.00 | 18 | 1013.9 |
| 20260902161530 | 65 | 178 | 3.0 | 8.0 | 0.00 | 0.00 | 0.00 | 19 | 1013.8 |
| 20260902160041 | 64 | 212 | 3.0 | 6.0 | 0.00 | 0.00 | 0.00 | 19 | 1013.8 |
| 20260902154539 | 63 | 280 | 3.0 | 7.0 | 0.00 | 0.00 | 0.00 | 20 | 1013.6 |
| 20260902153034 | 62 | 186 | 3.0 | 9.0 | 0.00 | 0.00 | 0.00 | 21 | 1013.3 |
| 20260902151518 | 60 | 240 | 3.0 | 8.0 | 0.00 | 0.00 | 0.00 | 21 | 1013.3 |
| 20260902150015 | 59 | 238 | 3.0 | 8.0 | 0.00 | 0.00 | 0.00 | 22 | 1013.1 |
| 20260902144515 | 58 | 232 | 3.0 | 9.0 | 0.00 | 0.00 | 0.00 | 23 | 1013.0 |
| 20260902143009 | 58 | 237 | 3.0 | 9.0 | 0.00 | 0.00 | 0.00 | 23 | 1012.9 |
| 20260902141509 | 58 | 234 | 4.0 | 7.0 | 0.00 | 0.00 | 0.00 | 24 | 1012.9 |
| 20260902140012 | 57 | 235 | 4.0 | 7.0 | 0.00 | 0.00 | 0.00 | 23 | 1012.7 |
| 20260902134508 | 57 | 209 | 4.0 | 9.0 | 0.00 | 0.00 | 0.00 | 24 | 1012.3 |
| 20260902133006 | 56 | 234 | 3.0 | 9.0 | 0.00 | 0.00 | 0.00 | 26 | 1012.1 |
| 20260902131504 | 56 | 240 | 3.0 | 8.0 | 0.00 | 0.00 | 0.00 | 27 | 1012.1 |
| 20260902130003 | 56 | 224 | 4.0 | 7.0 | 0.00 | 0.00 | 0.00 | 32 | 1012.0 |
| 20260902124504 | 56 | 215 | 4.0 | 9.0 | 0.00 | 0.00 | 0.00 | 42 | 1012.0 |
| 20260902123008 | 56 | 233 | 4.0 | 9.0 | 0.00 | 0.00 | 0.00 | 44 | 1011.9 |
| 20260902121602 | 56 | 236 | 4.0 | 10.0 | 0.00 | 0.00 | 0.00 | 44 | 1011.9 |
| 20260902114558 | 56 | 240 | 4.0 | 8.0 | 0.00 | 0.00 | 0.00 | 44 | 1012.0 |
| 20260902113055 | 56 | 240 | 4.0 | 7.0 | 0.00 | 0.00 | 0.00 | 43 | 1012.1 |
| 20260902111555 | 56 | 234 | 4.0 | 8.0 | 0.00 | 0.00 | 0.00 | 43 | 1012.2 |
| 20260902110058 | 56 | 236 | 4.0 | 9.0 | 0.00 | 0.00 | 0.00 | 44 | 1012.2 |
| 20260902104550 | 56 | 234 | 4.0 | 8.0 | 0.00 | 0.00 | 0.00 | 43 | 1012.3 |
| 20260902103047 | 56 | 242 | 4.0 | 9.0 | 0.00 | 0.00 | 0.00 | 43 | 1012.4 |
| 20260902101553 | 57 | 236 | 4.0 | 7.0 | 0.00 | 0.00 | 0.00 | 43 | 1012.5 |
| 20260902100044 | 57 | 244 | 4.0 | 8.0 | 0.00 | 0.00 | 0.00 | 43 | 1012.6 |
| 20260902094545 | 57 | 236 | 4.0 | 7.0 | 0.00 | 0.00 | 0.00 | 43 | 1012.6 |
| 20260902093039 | 57 | 236 | 4.0 | 8.0 | 0.00 | 0.00 | 0.00 | 43 | 1012.7 |
| 20260902091537 | 57 | 233 | 4.0 | 9.0 | 0.00 | 0.00 | 0.00 | 41 | 1012.8 |
| 20260902090040 | 57 | 236 | 4.0 | 7.0 | 0.00 | 0.00 | 0.00 | 41 | 1012.9 |
| 20260902084536 | 58 | 234 | 3.0 | 8.0 | 0.00 | 0.00 | 0.00 | 39 | 1013.0 |
| 20260902083030 | 58 | 198 | 4.0 | 8.0 | 0.00 | 0.00 | 0.00 | 37 | 1013.2 |
| 20260902081528 | 58 | 218 | 3.0 | 7.0 | 0.00 | 0.00 | 0.00 | 36 | 1013.3 |
| 20260902080026 | 58 | 238 | 4.0 | 11.0 | 0.00 | 0.00 | 0.00 | 34 | 1013.3 |
| 20260902074525 | 58 | 240 | 4.0 | 8.0 | 0.00 | 0.00 | 0.00 | 31 | 1013.4 |
| 20260902073022 | 58 | 238 | 4.0 | 9.0 | 0.00 | 0.00 | 0.00 | 26 | 1013.3 |
| 20260902071522 | 58 | 229 | 4.0 | 9.0 | 0.00 | 0.00 | 0.00 | 27 | 1013.3 |
| 20260902070025 | 58 | 213 | 4.0 | 8.0 | 0.00 | 0.00 | 0.00 | 26 | 1013.1 |
| 20260902064533 | 58 | 240 | 4.0 | 9.0 | 0.00 | 0.00 | 0.00 | 24 | 1013.1 |
| 20260902063017 | 58 | 244 | 4.0 | 9.0 | 0.00 | 0.00 | 0.00 | 24 | 1012.9 |
| 20260902061515 | 59 | 180 | 4.0 | 8.0 | 0.00 | 0.00 | 0.00 | 24 | 1012.8 |
| 20260902060016 | 59 | 221 | 4.0 | 9.0 | 0.00 | 0.00 | 0.00 | 23 | 1012.6 |
| 20260902054513 | 59 | 221 | 4.0 | 9.0 | 0.00 | 0.00 | 0.00 | 23 | 1012.5 |
| 20260902053011 | 59 | 204 | 4.0 | 9.0 | 0.00 | 0.00 | 0.00 | 22 | 1012.5 |
| 20260902051511 | 59 | 238 | 4.0 | 10.0 | 0.00 | 0.00 | 0.00 | 24 | 1012.5 |
| 20260902050008 | 59 | 244 | 4.0 | 10.0 | 0.00 | 0.00 | 0.00 | 24 | 1012.5 |
| 20260902044509 | 60 | 246 | 4.0 | 11.0 | 0.00 | 0.00 | 0.00 | 24 | 1012.3 |
| 20260902043007 | 60 | 238 | 4.0 | 8.0 | 0.00 | 0.00 | 0.00 | 26 | 1012.3 |
| 20260902041523 | 60 | 213 | 4.0 | 9.0 | 0.00 | 0.00 | 0.00 | 26 | 1012.2 |
| 20260902040007 | 59 | 229 | 4.0 | 9.0 | 0.00 | 0.00 | 0.00 | 27 | 1012.1 |
| 20260902034506 | 59 | 209 | 3.0 | 8.0 | 0.00 | 0.00 | 0.00 | 27 | 1011.9 |
| 20260902033002 | 59 | 217 | 3.0 | 7.0 | 0.00 | 0.00 | 0.00 | 28 | 1011.6 |
| 20260902031501 | 60 | 240 | 4.0 | 8.0 | 0.00 | 0.00 | 0.00 | 29 | 1011.3 |
| 20260902030001 | 60 | 251 | 3.0 | 8.0 | 0.00 | 0.00 | 0.00 | 33 | 1011.1 |
| 20260902024601 | 60 | 219 | 3.0 | 9.0 | 0.00 | 0.00 | 0.00 | 40 | 1010.8 |
| 20260902023059 | 60 | 229 | 4.0 | 10.0 | 0.00 | 0.00 | 0.00 | 47 | 1010.6 |
| 20260902021617 | 61 | 191 | 4.0 | 9.0 | 0.00 | 0.00 | 0.00 | 50 | 1010.6 |
| 20260902020058 | 62 | 234 | 4.0 | 9.0 | 0.00 | 0.00 | 0.00 | 50 | 1010.7 |
| 20260902014558 | 63 | 207 | 3.0 | 11.0 | 0.00 | 0.00 | 0.00 | 51 | 1010.7 |
| 20260902013054 | 65 | 165 | 3.0 | 10.0 | 0.00 | 0.00 | 0.00 | 51 | 1010.8 |
| 20260902011556 | 66 | 219 | 3.0 | 7.0 | 0.00 | 0.00 | 0.00 | 48 | 1010.8 |
| 20260902010052 | 67 | 242 | 4.0 | 9.0 | 0.00 | 0.00 | 0.00 | 48 | 1011.1 |
| 20260902004551 | 68 | 158 | 3.0 | 9.0 | 0.00 | 0.00 | 0.00 | 45 | 1011.2 |
| 20260902003048 | 70 | 240 | 4.0 | 10.0 | 0.00 | 0.00 | 0.00 | 42 | 1011.3 |
| 20260902001547 | 71 | 232 | 3.0 | 8.0 | 0.00 | 0.00 | 0.00 | 41 | 1011.3 |
| 20260902000052 | 72 | 235 | 2.0 | 8.0 | 0.00 | 0.00 | 0.00 | 39 | 1011.5 |
| 20260901234547 | 73 | 174 | 3.0 | 9.0 | 0.00 | 0.00 | 0.00 | 39 | 1011.9 |
| 20260901233048 | 73 | 191 | 3.0 | 9.0 | 0.00 | 0.00 | 0.00 | 37 | 1011.9 |